Weather History for Cozumel, Mexico

Change the Weather History Date:

Friday, May 24, 2013

  Actual Average Record
Temperature  
Mean Temperature 80 °F -  
Max Temperature 86 °F 88 °F 93 °F (2005)
Min Temperature 73 °F 76 °F 68 °F (2012)
Cooling Degree Days 14    
Growing Degree Days 30 (Base 50)    
Moisture  
Dew Point 73 °F    
Average Humidity 81    
Maximum Humidity 94    
Minimum Humidity 62    
Precipitation  
Precipitation 0.00 in - - ()
Sea Level Pressure  
Sea Level Pressure 29.99 in    
Wind  
Wind Speed 7 mph ()    
Max Wind Speed 15 mph    
Max Gust Speed 18 mph    
Visibility 7.6 miles    
Events      
Averages and records for this station are not official NWS values.
T = Trace of Precipitation, MM = Missing Value Source: Averaged Metar Reports

Daily Weather History Graph

Daily Weather History Graph

Search for Another Location

Airport:

Trip Planner

Search our weather history database for the weather conditions in past years. The results will help you decide how hot, cold, wet, or windy it might be!

Date:

Astronomy

May. 24, 2013 Rise Set
Actual Time 6:07 AM CDT 7:21 PM CDT
Civil Twilight 5:43 AM CDT 7:45 PM CDT
Nautical Twilight 5:15 AM CDT 8:14 PM CDT
Astronomical Twilight 4:45 AM CDT 8:43 PM CDT
Moon 7:06 PM CDT (5/24) 5:33 AM CDT (5/24)
Length of Visible Light 14h 01m
Length of Day
13h 13m
Full, 100% of the Moon is Illuminated
May 24
Full
May 24
Full
May 31
Last Quarter
Jun 8
New
Jun 16
First Quarter

Hourly Weather History & Observations

Time (CDT) Temp. Heat Index Dew Point Humidity Pressure Visibility Wind Dir Wind Speed Gust Speed Precip Events Conditions
12:49 AM 77.0 °F - 73.4 °F 89% 29.94 in 7.0 mi ESE 5.8 mph - N/A   Partly Cloudy
1:50 AM 75.2 °F - 73.4 °F 94% 29.95 in 7.0 mi East 4.6 mph - N/A   Partly Cloudy
2:49 AM 75.2 °F - 73.4 °F 94% 29.95 in 7.0 mi East 4.6 mph - N/A   Partly Cloudy
3:41 AM 73.4 °F - 71.6 °F 94% 29.98 in 7.0 mi East 3.5 mph - N/A   Partly Cloudy
4:49 AM 73.4 °F - 71.6 °F 94% 29.96 in 7.0 mi East 3.5 mph - N/A   Partly Cloudy
5:50 AM 73.4 °F - 71.6 °F 94% 29.97 in 7.0 mi East 3.5 mph - N/A   Partly Cloudy
6:42 AM 73.4 °F - 71.6 °F 94% 29.93 in 8.0 mi East 3.5 mph - N/A   Partly Cloudy
7:41 AM 78.8 °F - 73.4 °F 83% 30.00 in 8.0 mi East 5.8 mph - N/A   Scattered Clouds
8:43 AM 80.6 °F 85.4 °F 73.4 °F 79% 30.01 in 8.0 mi SE 15.0 mph - N/A   Scattered Clouds
9:41 AM 84.2 °F 89.6 °F 71.6 °F 66% 30.05 in 8.0 mi East 10.4 mph - N/A   Mostly Cloudy
10:41 AM 84.2 °F 90.9 °F 73.4 °F 70% 30.04 in 8.0 mi East 11.5 mph - N/A   Mostly Cloudy
11:40 AM 84.2 °F 90.9 °F 73.4 °F 70% 30.04 in 8.0 mi East 10.4 mph - N/A   Mostly Cloudy
12:40 PM 86.0 °F 91.8 °F 71.6 °F 62% 29.99 in 8.0 mi East 6.9 mph 18.4 mph N/A   Mostly Cloudy
1:42 PM 84.2 °F 90.9 °F 73.4 °F 70% 30.01 in 8.0 mi East 15.0 mph - N/A   Mostly Cloudy
2:45 PM 84.2 °F 89.6 °F 71.6 °F 66% 29.99 in 8.0 mi ENE 13.8 mph - N/A   Scattered Clouds
3:44 PM 84.2 °F 89.6 °F 71.6 °F 66% 30.01 in 8.0 mi ENE 15.0 mph - N/A   Scattered Clouds
4:40 PM 84.2 °F 90.9 °F 73.4 °F 70% 29.98 in 8.0 mi East 13.8 mph - N/A   Mostly Cloudy
5:40 PM 80.6 °F 85.4 °F 73.4 °F 79% 29.98 in 8.0 mi East 13.8 mph - N/A   Mostly Cloudy
6:44 PM 80.6 °F 85.4 °F 73.4 °F 79% 29.95 in 8.0 mi East 6.9 mph - N/A   Mostly Cloudy
7:44 PM 77.0 °F - 71.6 °F 83% 29.99 in 7.0 mi East 5.8 mph - N/A   Mostly Cloudy
8:41 PM 77.0 °F - 73.4 °F 89% 30.01 in 7.0 mi East 5.8 mph - N/A   Scattered Clouds
9:45 PM 77.0 °F - 73.4 °F 89% 30.06 in 7.0 mi East 6.9 mph - N/A   Partly Cloudy
10:45 PM 77.0 °F - 73.4 °F 89% 30.04 in 7.0 mi East 5.8 mph - N/A   Partly Cloudy